Location: Arbon
(43.0005°N, 0.7472°E)
Time: 19:22:57
(UTC+00:00)

Cosmos 44 Rocket - Pass Details

Date: 07 August 2020
Orbit: 647 x 743 km, 65.1° (Epoch: 24 September)

Event Time Altitude Azimuth Distance (km) Brightness Sun altitude
Rises 00:48:28 0° 328° (NNW) 3,093 7.3 -29.7°
Reaches altitude 10° 00:50:49 10° 332° (NNW) 2,187 6.4 -29.6°
Enters shadow 00:55:07 57° 15° (NNE) 845 3.9 -29.5°
